This demonstration page uses our WeatherBlox Daily Observations layout. Learn more.

Left ArrowRight Arrow

38.89511, -77.03637

Hourly Observations for September 17, 2018

Temp ( °F °C ) Dew Point ( °F °C ) Humidity (%) Winds ( mph kmh ) Pressure ( in mb ) Visibility ( mi km ) Precip ( " mm )
12:52 am 00:52 Mostly Cloudy 73 22.8 69 20.6 87 87 E 6 9 30.15 1021 10 16 N/A
1:52 am 01:52 Mostly Cloudy 73 22.8 69 20.6 87 87 NE 6 9 30.13 1020 10 16 N/A
2:52 am 02:52 Mostly Cloudy 73 22.8 69 20.6 87 87 E 7 11 30.11 1020 10 16 N/A
3:49 am 03:49 Cloudy 73 23 70 21 89 89 E 6 9 30.09 1019 10 16 N/A
3:52 am 03:52 Cloudy 73 22.8 69 20.6 87 87 E 6 9 30.10 1019 10 16 N/A
4:52 am 04:52 Cloudy 72 22.2 69 20.6 91 91 ENE 9 15 30.09 1019 10 16 N/A
5:52 am 05:52 Cloudy 75 23.9 72 22.2 90 90 E 9 15 30.08 1019 10 16 N/A
6:33 am 06:33 Cloudy 75 23.9 72 22.2 90 90 E 9 15 30.09 1019 10 16 N/A
6:52 am 06:52 Cloudy 75 23.9 73 22.8 94 94 E 6 9 30.07 1018 10 16 N/A
7:52 am 07:52 Cloudy 75 23.9 73 22.8 94 94 ESE 9 15 30.07 1018 10 16 N/A
8:52 am 08:52 Cloudy with Light Rain 76 24.4 73 22.8 91 91 SE 10 17 30.05 1018 10 16 N/A
9:52 am 09:52 Cloudy with Light Rain 77 25 73 22.8 88 88 ESE 9 15 30.05 1018 8 13 N/A
10:52 am 10:52 Cloudy 79 26.1 73 22.8 82 82 SE 13 20 30.03 1017 10 16 0.01 0.25
11:48 am 11:48 Cloudy 79 26 73 23 84 84 SE 12 19 30.03 1017 10 16 N/A
11:52 am 11:52 Cloudy 80 26.7 73 22.8 79 79 SE 13 20 30.01 1016 10 16 N/A
12:11 pm 12:11 Cloudy with Light Rain 80 26.7 73 22.8 79 79 SSE 12 19 30.00 1016 10 16 N/A
12:19 pm 12:19 Cloudy with Light Rain 78 25.6 73 22.8 85 85 SE 9 15 30.00 1016 5 8 N/A
12:30 pm 12:30 Cloudy with Light Rain 79 26.1 74 23.3 85 85 SSE 9 15 30.00 1016 6 10 0.02 0.51
12:45 pm 12:45 Cloudy with Light Rain 79 26.1 73 22.8 82 82 SSE 10 17 30.00 1016 7 11 0.02 0.51
12:52 pm 12:52 Cloudy with Light Rain 79 26.1 74 23.3 85 85 SSE 10 17 30.00 1016 7 11 0.02 0.51
1:20 pm 13:20 Cloudy with Rain 79 26.1 73 22.8 82 82 SSE 12 19 30.00 1016 2 3 N/A
1:24 pm 13:24 Cloudy with Heavy Rain 78 25.6 73 22.8 85 85 SSE 12 19 29.97 1015 2 2 0.04 1.02
1:32 pm 13:32 Cloudy with Light Rain 78 25.6 73 22.8 85 85 SE 14 22 29.97 1015 3 5 0.11 2.79
1:44 pm 13:44 Cloudy with Light Rain 78 25.6 74 23.3 87 87 SE 10 17 29.97 1015 8 13 0.11 2.79
1:52 pm 13:52 Cloudy 79 26.1 74 23.3 85 85 SE 12 19 29.96 1015 10 16 0.11 2.79
2:28 pm 14:28 Cloudy 79 26.1 73 22.8 82 82 SSE 14 22 29.94 1014 10 16 N/A
2:35 pm 14:35 Cloudy 79 26.1 73 22.8 82 82 SSE 13 20 29.94 1014 10 16 N/A
2:37 pm 14:37 Cloudy 79 26.1 73 22.8 82 82 SE 16 26 29.94 1014 10 16 N/A
2:52 pm 14:52 Cloudy 79 26.1 73 22.8 82 82 SSE 10 17 29.94 1014 10 16 N/A
3:00 pm 15:00 Cloudy 79 26.1 73 22.8 82 82 SSE 13 20 29.94 1014 10 16 N/A
3:07 pm 15:07 Cloudy 79 26.1 73 22.8 82 82 SSE 14 22 29.94 1014 10 16 N/A
3:09 pm 15:09 Cloudy with Light Rain 79 26.1 73 22.8 82 82 SSE 13 20 29.94 1014 10 16 N/A
3:12 pm 15:12 Cloudy with Light Rain 78 25.6 73 22.8 85 85 SSE 13 20 29.94 1014 10 16 N/A
3:52 pm 15:52 Cloudy 78 25.6 74 23.3 87 87 SSE 10 17 29.92 1013 10 16 0.01 0.25
4:40 pm 16:40 Cloudy with Rain 78 25.6 74 23.3 87 87 SSE 8 13 29.91 1013 3 5 0.04 1.02
4:44 pm 16:44 Cloudy with Rain 77 25 74 23.3 90 90 SSE 6 9 29.91 1013 3 4 0.05 1.27
4:52 pm 16:52 Cloudy with Heavy Rain 77 25 74 23.3 90 90 SE 3 6 29.90 1013 2 3 0.09 2.29
5:00 pm 17:00 Cloudy with Light Rain 77 25 74 23.3 90 90 ESE 8 13 29.88 1012 3 5 0.03 0.76
5:06 pm 17:06 Cloudy with Heavy Rain 77 25 73 22.8 88 88 ESE 15 24 29.88 1012 2 3 0.05 1.27
5:16 pm 17:16 Cloudy with Light Rain 77 25 73 22.8 88 88 ESE 17 28 29.88 1012 3 4 0.19 4.83
5:18 pm 17:18 Cloudy with Light Rain 77 25 74 23.3 90 90 ESE 17 28 29.88 1012 5 8 0.19 4.83
5:24 pm 17:24 Cloudy with Light Rain 78 25.6 74 23.3 87 87 SSE 20 31 29.88 1012 7 11 0.19 4.83
5:27 pm 17:27 Cloudy with Light Rain 78 25.6 74 23.3 87 87 SSE 17 28 29.91 1013 4 6 0.19 4.83
5:33 pm 17:33 Cloudy with Rain 77 25 74 23.3 90 90 S 15 24 29.91 1013 3 4 0.19 4.83
5:39 pm 17:39 Cloudy with Rain 77 25 74 23.3 90 90 S 12 19 29.91 1013 2 3 0.21 5.33
5:44 pm 17:44 Cloudy with Light Rain 77 25 74 23.3 90 90 S 10 17 29.91 1013 2 3 0.27 6.86
5:47 pm 17:47 Cloudy with Nearby Thunderstorms 77 25 73 23 89 89 S 9 15 29.91 1013 3 4 0.27 6.86
5:50 pm 17:50 Cloudy with Nearby Thunderstorms 77 25 73 23 89 89 S 10 17 29.91 1013 4 6 0.27 6.86
5:52 pm 17:52 Cloudy with Nearby Thunderstorms 77 25 74 23.3 90 90 SSE 8 13 29.89 1012 4 6 0.27 6.86
5:56 pm 17:56 Cloudy with Nearby Thunderstorms 77 25 74 23.3 90 90 SSE 7 11 29.91 1013 4 6 0.01 0.25
5:58 pm 17:58 Cloudy with Nearby Thunderstorms 77 25 74 23.3 90 90 S 7 11 29.91 1013 4 6 0.01 0.25
6:02 pm 18:02 Cloudy with Light Rain 77 25 75 23.9 94 94 S 9 15 29.91 1013 5 8 0.01 0.25
6:04 pm 18:04 Cloudy with Nearby Thunderstorms 77 25 74 23.3 90 90 S 8 13 29.91 1013 7 11 0.01 0.25
6:14 pm 18:14 Cloudy with Thunderstorms 77 25 74 23.3 90 90 SSE 9 15 29.88 1012 5 8 0.02 0.51
6:29 pm 18:29 Cloudy with Light Rain 78 25.6 74 23.3 87 87 SSE 8 13 29.88 1012 5 8 0.05 1.27
6:37 pm 18:37 Cloudy with Thunderstorms 78 25.6 74 23.3 87 87 SSE 10 17 29.88 1012 10 16 0.05 1.27
6:52 pm 18:52 Cloudy with Thunderstorms 78 25.6 74 23.3 87 87 SSE 8 13 29.88 1012 10 16 0.05 1.27
7:07 pm 19:07 Cloudy 78 25.6 74 23.3 87 87 SSE 12 19 29.88 1012 10 16 N/A
7:43 pm 19:43 Mostly Cloudy with Nearby Thunderstorms 78 25.6 74 23.3 87 87 SSE 8 13 29.88 1012 10 16 N/A
7:48 pm 19:48 Cloudy with Nearby Thunderstorms 79 26 73 23 84 84 SSE 9 15 29.88 1012 10 16 N/A
7:52 pm 19:52 Cloudy with Nearby Thunderstorms 78 25.6 74 23.3 87 87 SSE 9 15 29.87 1012 10 16 N/A
8:02 pm 20:02 Cloudy with Thunderstorms 78 25.6 74 23.3 87 87 S 7 11 29.88 1012 10 16 N/A
8:17 pm 20:17 Cloudy 77 25 74 23.3 90 90 S 9 15 29.88 1012 10 16 N/A
8:52 pm 20:52 Cloudy 77 25 74 23.3 90 90 SSW 7 11 29.88 1012 10 16 N/A
9:52 pm 21:52 Cloudy 77 25 74 23.3 90 90 S 8 13 29.87 1012 10 16 N/A
10:52 pm 22:52 Cloudy 77 25 74 23.3 90 90 S 7 11 29.86 1011 10 16 N/A
11:30 pm 23:30 Cloudy with Rain 77 25 74 23.3 90 90 S 9 15 29.85 1011 4 6 N/A
11:52 pm 23:52 Cloudy 77 25 74 23.3 90 90 S 8 13 29.85 1011 10 16 0.02 0.51

Powered by AerisWeather